Tracking 27112 objects as of 27-Mar-2023
HD Live streaming from Space Station
objects crossing your sky now

SL-19 R/B

Track SL-19 R/B now!
10-day predictions


NORAD ID: 32957
Int'l Code: 2008-025E
Perigee: 1,204.4 km
Apogee: 1,511.0 km
Inclination: 82.5 °
Period: 112.7 minutes
Semi major axis: 7728 km
RCS: 6.575 m2 (large)
Launch date: May 23, 2008
Source: Commonwealth of Independent States (former USSR) (CIS)
Launch site: PLESETSK MISSILE AND SPACE COMPLEX (PKMTR)

Note: This is a ROCKET BODY
Your satellite tracking list
Your tracking list is empty




NASA's NSSDC Master Catalog

Two Line Element Set (TLE):
1 32957U 08025E   23086.17483255  .00000019  00000-0  38219-4 0  9992
2 32957  82.5018 142.0121 0198361 254.1381 159.1073 12.77738143692236
Source of the keplerian elements: AFSPC